When you browse on this site, cookies collect data to enhance your experience and personalize the content and advertising you see.
Visit our Privacy Policy to learn more. By continuing to use the site, you agree to this use of cookies and data.
  • In Hungary
  • List of Countries
  • For 7 days
  • Water Temperature
  • Weather Map
  • News
  • Weather Widgets
  • user-avatar
    Login

    Hourly Weather Maktaly

    Today, 8 December, Sunday

    Time Temperature Precipitation Wind Pressure Humidity
    00:00 +6°C° 0 mm 1 mps 726 mmHg 65%
    01:00 +6°C° 0 mm 1 mps 726 mmHg 64%
    02:00 +6°C° 0 mm 1 mps 726 mmHg 63%
    03:00 +6°C° 0 mm 1 mps 725 mmHg 61%
    04:00 +6°C° 0 mm 1 mps 725 mmHg 60%
    05:00 +6°C° 0 mm 1 mps 725 mmHg 58%
    06:00 +6°C° 0 mm 1 mps 725 mmHg 57%
    07:00 +6°C° 0 mm 1 mps 725 mmHg 56%
    08:00 +6°C° 0 mm 1 mps 725 mmHg 55%
    09:00 +8°C° 0 mm 1 mps 725 mmHg 50%
    10:00 +10°C° 0 mm 1 mps 725 mmHg 45%
    11:00 +12°C° 0 mm 1 mps 725 mmHg 40%
    12:00 +13°C° 0 mm 2 mps 724 mmHg 39%
    13:00 +14°C° 0 mm 2 mps 724 mmHg 38%
    14:00 +15°C° 0 mm 2 mps 723 mmHg 37%
    15:00 +13°C° 0 mm 2 mps 723 mmHg 42%
    16:00 +12°C° 0 mm 2 mps 722 mmHg 47%
    17:00 +9°C° 0 mm 2 mps 722 mmHg 53%
    18:00 +9°C° 0 mm 2 mps 722 mmHg 53%
    19:00 +9°C° 0 mm 2 mps 721 mmHg 52%
    20:00 +8°C° 0 mm 2 mps 721 mmHg 52%
    21:00 +8°C° 0 mm 2 mps 721 mmHg 52%
    22:00 +7°C° 0 mm 2 mps 720 mmHg 51%
    23:00 +7°C° 0 mm 2 mps 720 mmHg 51%

    Tomorrow, 9 December, Monday

    Time Temperature Precipitation Wind Pressure Humidity
    00:00 +7°C° 0 mm 2 mps 719 mmHg 50%
    01:00 +7°C° 0 mm 2 mps 719 mmHg 49%
    02:00 +8°C° 0 mm 1 mps 719 mmHg 49%
    03:00 +7°C° 0 mm 1 mps 718 mmHg 47%
    04:00 +7°C° 0 mm 1 mps 718 mmHg 46%
    05:00 +7°C° 0 mm 1 mps 718 mmHg 45%
    06:00 +7°C° 0 mm 1 mps 718 mmHg 44%
    07:00 +7°C° 0 mm 1 mps 718 mmHg 43%
    08:00 +7°C° 0 mm 1 mps 718 mmHg 42%
    09:00 +9°C° 0 mm 1 mps 718 mmHg 39%
    10:00 +10°C° 0 mm 0 mps 718 mmHg 36%
    11:00 +11°C° 0 mm 0 mps 718 mmHg 34%
    12:00 +12°C° 0 mm 0 mps 718 mmHg 33%
    13:00 +13°C° 0 mm 0 mps 717 mmHg 33%
    14:00 +13°C° 0 mm 0 mps 717 mmHg 33%
    15:00 +12°C° 0 mm 0 mps 717 mmHg 36%
    16:00 +11°C° 0 mm 0 mps 717 mmHg 39%
    17:00 +10°C° 0 mm 0 mps 717 mmHg 42%
    18:00 +9°C° 0 mm 0 mps 717 mmHg 42%
    19:00 +9°C° 0 mm 0 mps 717 mmHg 42%
    20:00 +9°C° 0 mm 0 mps 717 mmHg 42%
    21:00 +10°C° 0 mm 1 mps 718 mmHg 41%
    22:00 +10°C° 0 mm 1 mps 718 mmHg 41%
    23:00 +10°C° 0 mm 1 mps 718 mmHg 41%

    Day after tomorrow, 10 December, Tuesday

    Time Temperature Precipitation Wind Pressure Humidity
    00:00 +9°C° 0 mm 1 mps 718 mmHg 42%
    01:00 +9°C° 0 mm 1 mps 718 mmHg 43%
    02:00 +9°C° 0 mm 1 mps 718 mmHg 44%
    03:00 +8°C° 0 mm 2 mps 718 mmHg 43%
    04:00 +8°C° 0 mm 2 mps 718 mmHg 41%
    05:00 +9°C° 0 mm 2 mps 718 mmHg 39%
    06:00 +9°C° 0 mm 2 mps 718 mmHg 40%
    07:00 +8°C° 0 mm 2 mps 719 mmHg 41%
    08:00 +8°C° 0 mm 2 mps 719 mmHg 42%
    09:00 +10°C° 0 mm 2 mps 719 mmHg 40%
    10:00 +12°C° 0 mm 2 mps 720 mmHg 38%
    11:00 +13°C° 0 mm 3 mps 720 mmHg 35%
    12:00 +14°C° 0 mm 2 mps 720 mmHg 43%
    13:00 +13°C° 0 mm 2 mps 720 mmHg 50%
    14:00 +13°C° 0 mm 1 mps 720 mmHg 57%
    15:00 +12°C° 0.1 mm 1 mps 720 mmHg 61%
    16:00 +11°C° 0.1 mm 1 mps 720 mmHg 65%
    17:00 +11°C° 0.1 mm 1 mps 720 mmHg 69%
    18:00 +10°C° 0 mm 1 mps 720 mmHg 70%
    19:00 +10°C° 0 mm 1 mps 720 mmHg 71%
    20:00 +9°C° 0 mm 0 mps 720 mmHg 72%
    21:00 +9°C° 0 mm 0 mps 720 mmHg 72%
    22:00 +9°C° 0 mm 1 mps 720 mmHg 72%
    23:00 +9°C° 0 mm 1 mps 720 mmHg 72%

    11 December, Wednesday

    Time Temperature Precipitation Wind Pressure Humidity
    00:00 +8°C° 0 mm 0 mps 720 mmHg 72%
    01:00 +8°C° 0 mm 0 mps 720 mmHg 73%
    02:00 +8°C° 0 mm 0 mps 719 mmHg 73%
    03:00 +8°C° 0.1 mm 0 mps 719 mmHg 76%
    04:00 +7°C° 0.1 mm 0 mps 719 mmHg 79%
    05:00 +8°C° 0.1 mm 1 mps 720 mmHg 82%
    06:00 +8°C° 0.2 mm 1 mps 720 mmHg 83%
    07:00 +8°C° 0.2 mm 1 mps 720 mmHg 85%
    08:00 +7°C° 0.2 mm 2 mps 720 mmHg 86%
    09:00 +8°C° 0 mm 2 mps 720 mmHg 82%
    10:00 +9°C° 0 mm 2 mps 720 mmHg 79%
    11:00 +9°C° 0 mm 2 mps 720 mmHg 75%
    12:00 +10°C° 0 mm 2 mps 720 mmHg 72%
    13:00 +10°C° 0 mm 2 mps 719 mmHg 69%
    14:00 +12°C° 0 mm 2 mps 719 mmHg 67%
    15:00 +10°C° 0 mm 2 mps 719 mmHg 71%
    16:00 +10°C° 0 mm 1 mps 718 mmHg 75%
    17:00 +9°C° 0 mm 1 mps 718 mmHg 79%
    18:00 +9°C° 0 mm 1 mps 718 mmHg 79%
    19:00 +9°C° 0 mm 1 mps 718 mmHg 79%
    20:00 +8°C° 0 mm 1 mps 718 mmHg 79%
    21:00 +8°C° 0 mm 1 mps 718 mmHg 79%
    22:00 +8°C° 0 mm 1 mps 718 mmHg 78%
    23:00 +8°C° 0 mm 1 mps 718 mmHg 77%

    12 December, Thursday

    Time Temperature Precipitation Wind Pressure Humidity
    00:00 +8°C° 0 mm 1 mps 718 mmHg 78%
    01:00 +7°C° 0 mm 1 mps 718 mmHg 80%
    02:00 +7°C° 0 mm 1 mps 718 mmHg 81%
    03:00 +7°C° 0 mm 1 mps 718 mmHg 80%
    04:00 +7°C° 0 mm 1 mps 717 mmHg 78%
    05:00 +7°C° 0 mm 1 mps 717 mmHg 76%
    06:00 +6°C° 0 mm 1 mps 718 mmHg 76%
    07:00 +6°C° 0 mm 1 mps 718 mmHg 76%
    08:00 +6°C° 0 mm 1 mps 718 mmHg 76%
    09:00 +7°C° 0 mm 1 mps 718 mmHg 72%
    10:00 +9°C° 0 mm 1 mps 718 mmHg 67%
    11:00 +10°C° 0 mm 1 mps 719 mmHg 63%
    12:00 +10°C° 0 mm 2 mps 719 mmHg 63%
    13:00 +10°C° 0 mm 2 mps 718 mmHg 64%
    14:00 +10°C° 0 mm 3 mps 718 mmHg 65%
    15:00 +10°C° 0.2 mm 3 mps 718 mmHg 69%
    16:00 +9°C° 0.2 mm 3 mps 718 mmHg 73%
    17:00 +8°C° 0.2 mm 2 mps 718 mmHg 78%
    18:00 +8°C° 0.1 mm 2 mps 719 mmHg 78%
    19:00 +8°C° 0.1 mm 3 mps 719 mmHg 78%
    20:00 +7°C° 0.1 mm 3 mps 719 mmHg 79%
    21:00 +7°C° 0 mm 2 mps 719 mmHg 79%
    22:00 +7°C° 0 mm 2 mps 719 mmHg 79%
    23:00 +7°C° 0 mm 2 mps 719 mmHg 79%

    13 December, Friday

    Time Temperature Precipitation Wind Pressure Humidity
    00:00 +8°C° 0 mm 1 mps 719 mmHg 79%
    01:00 +7°C° 0 mm 1 mps 719 mmHg 80%
    02:00 +6°C° 0 mm 0 mps 719 mmHg 80%
    03:00 +6°C° 0.1 mm 0 mps 719 mmHg 82%
    04:00 +5°C° 0.1 mm 0 mps 718 mmHg 83%
    05:00 +5°C° 0.1 mm 0 mps 718 mmHg 84%
    06:00 +5°C° 0 mm 0 mps 719 mmHg 84%
    07:00 +6°C° 0 mm 1 mps 719 mmHg 84%
    08:00 +5°C° 0 mm 1 mps 719 mmHg 84%
    09:00 +7°C° 0 mm 1 mps 719 mmHg 77%
    10:00 +8°C° 0 mm 1 mps 719 mmHg 71%
    11:00 +9°C° 0 mm 1 mps 719 mmHg 65%
    12:00 +10°C° 0 mm 1 mps 719 mmHg 62%
    13:00 +11°C° 0 mm 1 mps 718 mmHg 59%
    14:00 +11°C° 0 mm 1 mps 718 mmHg 57%
    15:00 +10°C° 0 mm 1 mps 718 mmHg 61%
    16:00 +9°C° 0 mm 1 mps 718 mmHg 66%
    17:00 +8°C° 0 mm 1 mps 718 mmHg 71%
    18:00 +8°C° 0 mm 1 mps 718 mmHg 72%
    19:00 +7°C° 0 mm 1 mps 718 mmHg 73%
    20:00 +7°C° 0 mm 1 mps 718 mmHg 74%
    21:00 +7°C° 0 mm 1 mps 718 mmHg 71%
    22:00 +7°C° 0 mm 1 mps 717 mmHg 69%
    23:00 +5°C° 0 mm 2 mps 717 mmHg 66%
    Show more